User: anonymous   Login
Location: Tauranga
(37.6860°S, 176.1670°E)
Time: 12:34:08
(UTC+13:00)
Language:

Cosmos 1869 Rocket - Orbit

View from above orbital plane
View from above orbital plane
View from above satellite
View from above satellite

Ground track
Ground track

The orbit data is extracted from the following two-line orbital elements,

1 18215U 87062B   19078.60322170 +.00000065 +00000-0 +49497-5 0  9995
2 18215 082.5130 043.3467 0020696 170.9843 307.2787 14.83180539689807
Epoch (UTC): 19 March 2019 14:28:38
Eccentricity: 0.0020696
inclination: 82.5130°
perigee height: 605 km
apogee height: 634 km
right ascension of ascending node: 43.3467°
argument of perigee: 170.9843°
revolutions per day: 14.83180539
mean anomaly at epoch: 307.2787°
orbit number at epoch: 68980

The dashed part of the orbit path shows where the satellite is in the earth's shadow,  

DLR